Location: 22
(39.7117°N, 89.5929°W)
Time: 06:15:42
(UTC-05:00)

Vanguard 1 Rocket - Pass Details

Date: 16 February 2023
Orbit: 652 x 4223 km, 34.3° (Epoch: 26 March)

Event Time Altitude Azimuth Distance (km) Brightness Sun altitude
Rises 10:32:25 0° 256° (WSW) 3,369 10.2 33.1°
Reaches altitude 10° 10:34:27 10° 252° (WSW) 2,632 9.8 33.3°
Maximum altitude 10:40:32 61° 173° (S) 1,480 9.7 33.8°
Drops below altitude 10° 10:52:05 10° 97° (E) 4,814 11.6 34.8°
Sets 10:57:11 0° 95° (E) 6,420 12.0 35.2°
